Location: ??????
(41.8451°N, 44.7188°E)
Time: 08:26:19
(UTC+00:00)

Daily predictions for brighter satellites

Satellite Brightness Start Highest point End
(mag) Time Altitude Azimuth Time Altitude Azimuth Time Altitude Azimuth
Cosmos 1743 2.9 16:43:56 10° NNE 16:46:41 32° ENE 16:49:26 10° SE
Delta 2 Rocket 4.0 16:44:15 10° SW 16:46:50 23° S 16:49:20 10° ESE
Cosmos 1452 Rocket 3.7 16:42:00 10° SSW 16:47:13 82° WNW 16:52:29 10° NNE
Okean 1 Rocket 3.3 16:43:14 10° SSW 16:47:37 76° W 16:52:04 10° N
USA 305 2.7 16:43:35 10° NW 16:47:41 73° SW 16:51:22 10° SE
CZ-4B R/B 3.9 16:42:58 10° SE 16:48:11 40° ENE 16:53:23 10° N
Cosmos 1741 Rocket 4.1 16:47:33 10° NNW 16:52:53 87° WSW 16:58:09 10° SSE
Cosmos 1302 Rocket 3.9 16:49:43 10° S 16:54:50 71° ESE 17:00:01 10° NNE
NOSS 3-3 (C) 3.6 16:53:12 10° SSW 16:58:08 60° ESE 17:03:54 10° NE
USA 215 4.0 16:56:36 10° SSE 17:02:49 47° SW 17:09:04 10° WNW
Cosmos 1725 Rocket 4.0 16:57:02 10° S 17:03:16 73° E 17:09:29 10° NNE
CSL-04 Debris 4.4 16:58:13 10° S 17:03:38 77° WSW 17:09:06 10° NNW
Okean-O 4.0 17:00:14 10° ESE 17:03:39 24° ENE 17:07:09 10° NNE
Helios 1A Rocket 2.2 17:02:52 10° NNE 17:05:59 60° ESE 17:09:03 10° S
GEOS 3 Rocket 3.8 17:00:52 10° SE 17:06:08 70° NE 17:11:30 10° NNW
Gbstr 26 Del rocket 3.5 17:02:20 10° WNW 17:07:33 63° SW 17:11:25 13° SE
SPOT 5 3.6 17:04:28 10° S 17:08:37 46° W 17:12:52 10° NNW
ADEOS 3.8 17:03:57 10° SSE 17:08:59 53° ENE 17:14:04 10° N
Feng Yun 1-1 Rocket 4.2 17:06:24 10° SSE 17:11:47 86° ENE 17:17:15 10° NNW
Cosmos 2016 Rocket 4.0 17:10:57 10° S 17:17:13 85° E 17:23:25 10° N
Tsikada Rocket 4.1 17:11:57 10° N 17:18:00 56° E 17:23:46 11° SSE
Cosmos 2322 Rocket 4.0 17:14:14 10° N 17:18:06 18° NE 17:21:59 10° E
Cosmos 2082 Rocket 2.5 17:13:45 10° SSW 17:19:27 73° WNW 17:25:11 10° NNE
Meteor 2-12 Rocket 4.5 17:14:49 10° N 17:20:54 66° E 17:26:58 10° SSE
Cosmos 2237 4.3 17:17:02 10° NNW 17:22:46 66° ENE 17:27:26 16° SE
Meteor 1-31 Rocket 3.8 17:23:04 10° S 17:26:19 38° W 17:29:35 10° NNW
DELTA 2 R/B (1) 3.6 17:21:43 10° W 17:27:17 72° S 17:32:19 13° E
Cosmos 2369 3.7 17:21:40 10° NNW 17:27:26 81° ENE 17:32:11 15° SSE
IRS-1A Rocket 4.4 17:25:02 12° SSE 17:30:28 73° ENE 17:36:23 10° N
BREEZE-M DEB (TANK) 3.8 17:28:05 10° W 17:32:15 32° NNW 17:34:24 10° NE
Milstar 3 4.2 17:32:34 10° WSW 17:37:41 22° S 17:41:41 16° SSE
ATLAS 3B R/B 4.3 17:33:49 10° NW 17:40:16 31° WSW 17:46:20 10° SSW
YAOGAN 11 4.2 17:35:52 10° NNE 17:40:16 57° ESE 17:44:10 13° S
Ariane Rocket 4.3 17:38:54 17° ESE 17:41:26 25° ENE 17:45:33 10° N
CZ-4B R/B 4.1 17:40:36 18° E 17:41:28 20° ENE 17:44:04 10° NNE
Cosmos 2098 Rocket 4.4 17:40:12 21° ESE 17:41:36 24° E 17:45:06 10° NE
Cosmos 2151 3.5 17:41:29 10° N 17:45:21 38° ENE 17:46:57 27° SE
Spot 2 Rocket 3.4 17:42:53 19° SSE 17:46:31 76° ENE 17:51:33 10° N
Cosmos 1626 Rocket 3.6 17:45:03 10° N 17:49:24 63° E 17:51:46 26° SSE
SL-16 R/B 2.6 17:44:17 10° NNW 17:49:49 52° ENE 17:53:02 24° SE
ERS-1 Rocket 3.9 17:45:09 10° S 17:49:56 46° W 17:54:46 10° NNW
SPOT 3 Rocket 4.2 17:48:18 23° ESE 17:50:57 40° ENE 17:55:43 10° N
MOS 1-B 4.3 17:47:01 19° SSE 17:51:14 76° ENE 17:57:03 10° N
Cosmos 2061 Rocket 4.1 17:50:04 10° SSW 17:56:17 77° W 18:02:36 10° N
COSMOS 2406 3.5 17:57:26 10° SSW 18:03:09 69° WNW 18:08:54 10° NNE
Cosmos 1980 Rocket 4.0 17:59:10 10° NW 18:03:46 26° WSW 18:08:20 10° SSW
Cosmos 1606 Rocket 4.5 18:03:23 28° ESE 18:03:52 29° E 18:07:36 10° NNE
CZ-4B R/B 3.9 18:03:34 29° ESE 18:05:23 41° ENE 18:09:56 10° N
CZ-4 R/B 3.9 18:05:42 10° WSW 18:07:30 13° W 18:09:19 10° WNW
SL-08 R/B 4.4 18:06:01 10° N 18:10:35 45° WNW 18:15:04 10° SW
Terra 3.4 18:07:36 10° SSW 18:11:42 30° W 18:15:50 10° NW
Cosmos 1933 3.1 18:10:09 33° S 18:11:46 89° ESE 18:15:36 10° N
BREEZE-M DEB (TANK) 4.2 18:08:21 10° WNW 18:11:54 52° SSW 18:16:17 26° SSE
USA 290 3.6 18:13:20 26° ENE 18:13:20 26° ENE 18:15:06 10° NE
USA 186 1.9 18:12:43 47° SW 18:13:01 50° W 18:15:42 10° NNW
Meteor 1-20 Rocket 4.2 18:08:31 10° N 18:14:09 86° E 18:17:15 29° S
Cosmos 1461 4.3 18:12:53 10° WSW 18:16:18 35° NW 18:19:43 10° NNE
Okean 1 4.3 18:17:58 26° ENE 18:17:58 26° ENE 18:20:24 10° NNE
Okean O Rocket 2.1 18:15:17 25° SSW 18:17:35 53° W 18:21:48 10° NNW
ISS -0.8 18:16:50 10° NW 18:18:55 15° N 18:21:00 10° NE
Cosmos 2333 Rocket 2.2 18:14:16 10° NNW 18:20:00 79° ENE 18:22:28 36° SSE
Cosmos 1777 Rocket 4.4 18:16:18 10° N 18:21:23 49° ENE 18:23:04 36° ESE
Cosmos 1833 4.5 18:20:29 35° SSE 18:22:14 45° ESE 18:27:35 10° NE
Cosmos 1544 Rocket 4.3 18:22:14 15° SSW 18:25:41 49° W 18:29:53 10° N
Cosmos 2360 Rocket 2.5 18:24:43 10° NNW 18:30:19 55° ENE 18:32:15 38° ESE
Cosmos 2034 Rocket 4.4 18:29:12 35° SE 18:31:13 45° E 18:37:11 10° NNE
Cosmos 1503 Rocket 4.5 18:26:15 10° N 18:31:13 45° ENE 18:32:34 37° ESE
Cosmos 1437 Rocket 3.7 18:29:32 21° SW 18:31:26 39° WNW 18:34:50 10° N
Okean 1-7 Rocket 3.7 18:30:35 10° N 18:35:01 59° E 18:35:41 53° ESE
BREEZE-M DEB (TANK) 3.3 18:35:53 10° WSW 18:39:42 42° NNW 18:40:13 36° N
Okean-O 4.0 18:37:33 20° SW 18:39:45 31° W 18:43:41 10° NNW
Cosmos 1486 Rocket 3.9 18:36:57 10° NNW 18:42:15 86° ENE 18:43:41 50° SSE
Cosmos 2219 Rocket 2.8 18:37:39 10° NNW 18:43:05 44° ENE 18:44:43 35° E
IRS-1C Rocket 4.1 18:46:10 46° S 18:47:49 81° WSW 18:53:07 10° NNW
DNEPR-1 R/B 4.4 18:42:33 10° NW 18:48:20 87° WSW 18:50:43 43° SSE
CZ-2C R/B 3.7 18:49:34 31° N 18:49:34 31° N 18:51:11 10° N
Nadezhda 4 Rocket 3.9 18:42:43 10° N 18:48:52 79° E 18:50:53 45° SSE
Cosmos 540 Rocket 3.4 18:48:29 55° SSE 18:49:24 67° ESE 18:54:31 10° NNE
Cosmos 1825 Rocket 3.4 18:55:20 10° N 18:59:42 89° W 18:59:54 82° S
Meteor 2-10 4.2 18:54:34 10° NNW 19:00:20 81° W 19:01:51 50° S
Cosmos 2322 Rocket 2.2 18:57:06 10° NNW 19:02:46 76° WSW 19:04:02 55° S
Cosmos 1805 4.2 19:01:06 10° NNW 19:03:37 35° WNW 19:03:37 35° WNW
NOSS 3-4 (A) 3.9 18:57:52 10° NW 19:04:50 83° WSW 19:07:41 44° SSE
NOSS 3-4 (C) 3.9 18:58:29 10° NW 19:05:30 83° WSW 19:08:20 44° SSE
Cosmos 1953 Rocket 3.7 19:02:09 10° N 19:06:08 58° ENE 19:06:08 58° ENE
Cosmos 2195 Rocket 4.4 19:00:55 10° N 19:07:07 74° E 19:08:32 54° SSE
Helios 1A 4.1 19:04:18 10° NNE 19:06:42 31° NE 19:06:42 31° NE
Cosmos 468 Rocket 4.1 19:10:16 56° E 19:10:16 56° E 19:15:18 10° NNE
RESURS DK-1 4.5 19:07:37 10° NNE 19:10:09 16° NE 19:10:20 16° NE
Cosmos 2026 Rocket 4.1 19:04:51 10° N 19:11:13 67° E 19:12:37 53° SE
DELTA 2 R/B (1) 3.8 19:08:02 10° W 19:12:59 50° SSW 19:12:59 50° SSW
Geosat 3.9 19:10:42 10° NNE 19:15:34 67° ESE 19:15:34 67° ESE
Cosmos 2058 Rocket 3.5 19:16:47 51° NE 19:16:47 51° NE 19:20:17 10° NNE
Ariane Rocket 3.9 19:18:58 35° SW 19:20:05 39° W 19:24:50 10° NNW
Cosmos 2237 Rocket 4.5 19:17:39 10° NNE 19:20:42 15° NE 19:23:36 10° ENE
Cosmos 44 3.9 19:18:34 10° NNW 19:23:51 52° NE 19:24:29 49° ENE
Cosmos 1076 Rocket 3.8 19:19:52 10° NNW 19:23:44 61° WNW 19:23:44 61° WNW
Meteor 1-26 Rocket 4.1 19:27:23 65° SSW 19:28:14 83° W 19:33:56 10° N
Cosmos 1763 Rocket 4.4 19:31:03 28° WSW 19:33:24 45° WNW 19:38:27 10° N
SL-16 R/B 3.8 19:29:10 10° NW 19:33:29 23° W 19:34:53 21° WSW
COSMOS 2428 3.6 19:29:24 10° N 19:34:41 37° ENE 19:35:39 35° E
ARIANE 5 R/B 4.0 19:37:58 29° ENE 19:37:58 29° ENE 19:41:22 10° N
ALOS 2 4.2 19:40:00 25° ENE 19:40:00 25° ENE 19:43:09 10° NNE
Meteor 2-2 Rocket 4.2 19:39:25 66° SW 19:40:11 79° W 19:45:58 10° N
Cosmos 1898 Rocket 4.1 19:39:09 10° N 19:44:08 45° ENE 19:44:14 45° ENE
Cosmos 990 Rocket 4.3 19:41:08 10° NNW 19:46:07 55° WSW 19:46:07 55° WSW
Helios 1B rocket 3.9 19:50:25 29° N 19:50:25 29° N 19:52:18 10° N
ISS -1.2 19:53:35 10° NW 19:55:19 22° NNW 19:55:19 22° NNW
Cosmos 1092 Rocket 4.1 19:53:48 10° NNW 19:59:53 62° W 20:00:42 56° SW
Cosmos-2242 4.4 20:01:32 32° WNW 20:01:32 32° WNW 20:04:52 10° NNW
Cosmos 2142 Rocket 4.5 20:01:35 64° ESE 20:01:50 65° E 20:08:00 10° NNE
NOSS 0 Rocket 4.4 19:55:55 10° NNW 20:01:53 49° ENE 20:02:54 44° E
Cosmos 2180 Rocket 4.5 20:03:02 63° ESE 20:03:16 64° E 20:09:31 10° NNE
Cosmos 2297 Rocket 3.0 20:04:30 38° ENE 20:04:30 38° ENE 20:08:38 10° NE
Cosmos 2333 Rocket 4.3 20:00:35 10° WNW 20:03:30 14° W 20:04:29 14° WSW
Cosmos 1536 4.5 20:00:24 10° NNW 20:02:28 29° NW 20:02:28 29° NW
Cosmos 841 Rocket 3.6 20:07:30 72° NNE 20:07:30 72° NNE 20:12:12 10° NNE
Meteor 1-14 Rocket 4.1 20:06:47 10° N 20:12:09 81° NE 20:12:09 81° NE
Cosmos 2360 Rocket 3.9 20:09:41 10° NW 20:13:48 21° W 20:14:00 21° WSW
Spot 4 4.2 20:18:18 61° N 20:18:18 61° N 20:22:20 10° N
Cosmos 2322 3.6 20:12:54 10° NNW 20:18:24 84° NNW 20:18:24 84° NNW
ACS3 Solar Sail 3.8 20:16:17 10° ENE 20:19:05 13° E 20:19:12 13° E
Cosmos 2221 3.7 20:27:01 39° NNW 20:27:01 39° NNW 20:29:50 10° N
Cosmos 2219 Rocket 3.6 20:22:04 10° NW 20:26:24 27° W 20:26:24 27° W
Cosmos 2279 Rocket 4.4 20:32:08 50° WSW 20:32:58 54° WNW 20:39:06 10° N
Meteor 2-20 4.4 20:35:19 74° E 20:35:19 74° E 20:41:22 10° NNE
ARGOS Delta rocket 4.2 20:34:15 10° N 20:39:06 70° NW 20:39:06 70° NW
Meteor 1-19 Rocket 4.5 20:42:19 60° W 20:42:29 61° WNW 20:48:21 10° N
RESURS DK-1 4.4 20:43:56 10° NW 20:45:33 22° NW 20:45:33 22° NW
Cosmos 1937 Rocket 4.0 20:46:04 10° NNW 20:50:05 51° NW 20:50:05 51° NW
SL-16 R/B 4.3 20:49:43 10° N 20:53:59 21° NE 20:57:07 14° E
CZ-2C R/B 3.0 20:57:43 57° ENE 20:57:43 57° ENE 21:02:35 10° N
GP-B 4.2 20:56:01 10° N 20:59:02 42° NNW 20:59:02 42° NNW
USA 234 3.2 20:54:16 10° NE 21:00:50 81° NW 21:02:17 58° WSW
SeaSat 1 4.0 21:03:19 25° ENE 21:04:37 28° NE 21:08:45 10° N
Lacrosse 4 Rocket 3.0 21:07:20 31° NNE 21:07:20 31° NNE 21:09:34 10° NNE
Cosmos 2237 Rocket 2.2 20:59:58 10° NNW 21:05:22 78° NNE 21:05:22 78° NNE
Cosmos 2266 Rocket 4.1 21:00:02 10° NNW 21:05:54 60° W 21:05:54 60° W
Cosmos 1980 3.7 21:04:14 10° NNW 21:09:25 75° NW 21:09:25 75° NW
BREEZE-M DEB (TANK) 4.1 20:51:38 10° SW 21:12:30 87° SE 21:17:47 10° ENE
Cosmos 2227 Rocket 2.4 21:14:03 61° ENE 21:14:03 61° ENE 21:19:06 10° NNE
ALOS 2 4.4 21:17:23 23° WNW 21:17:23 23° WNW 21:19:39 10° NW
Meteor 2-4 Rocket 3.7 21:18:12 73° NNW 21:18:12 73° NNW 21:23:18 10° N
COSMOS 2428 3.9 21:13:48 10° NW 21:17:37 30° W 21:17:37 30° W
Cosmos 2263 Rocket 2.8 21:22:17 45° E 21:22:17 45° E 21:26:58 10° NE
CZ-2C R/B 3.6 21:22:35 10° N 21:28:13 56° WNW 21:28:28 56° W
BlueWalker 3 4.2 21:31:45 21° NNE 21:31:45 21° NNE 21:33:20 10° NE
Alouette 2 Rocket 4.4 21:28:04 10° NNW 21:30:59 50° NNW 21:30:59 50° NNW
Cosmos 1655 Rocket 3.9 21:32:57 10° NNW 21:39:10 69° W 21:39:20 68° WSW
Cosmos 1814 Rocket 4.3 21:41:53 60° NW 21:41:53 60° NW 21:46:43 10° NNE
CENTAUR R/B 4.0 21:44:11 18° ESE 21:44:11 18° ESE 21:48:04 10° ENE
Meteor 2-11 Rocket 4.2 21:40:45 10° N 21:46:52 84° W 21:47:10 81° SSW
Cosmos 2297 Rocket 3.5 21:46:14 27° WNW 21:47:29 29° NW 21:52:23 10° N
Meteor 2-10 Rocket 3.7 21:45:49 10° NNW 21:51:08 69° WNW 21:51:08 69° WNW
Cosmos 2082 4.3 21:56:49 42° ESE 21:56:54 42° ESE 22:02:10 10° NE
Cosmos 1151 Rocket 3.8 21:58:14 50° NNE 21:58:14 50° NNE 22:01:33 10° NNE
Cosmos 1340 Rocket 4.2 21:55:30 10° N 21:58:09 35° NNE 21:58:09 35° NNE
Cosmos 1244 Rocket 4.3 21:53:31 10° N 21:59:41 81° W 22:00:08 75° SSW
ACS3 Solar Sail 1.5 21:56:06 10° N 22:02:08 87° W 22:02:41 75° SSW
ATLAS 5 CENTAUR R/B 3.1 22:02:47 63° SSW 22:03:57 87° SE 22:21:11 10° NE
IDEFIX/ARIANE 42P 3.4 22:06:32 10° NNE 22:11:24 38° E 22:12:01 37° ESE
Atlas Centaur 2 4.1 22:15:27 23° SE 22:15:27 23° SE 22:18:58 10° ESE
Cosmos 1953 4.2 22:09:56 10° NNE 22:12:46 21° ENE 22:12:47 21° ENE
Cosmos 489 Rocket 4.4 22:13:01 65° SW 22:13:56 77° WNW 22:20:19 10° NNE
Cosmos 1500 Rocket 3.9 22:10:17 10° N 22:14:02 63° N 22:14:02 63° N
Iridium 4 Rocket 4.5 22:18:00 39° W 22:18:06 39° W 22:23:30 10° NNW
S3M 4.1 22:20:55 53° SSE 22:22:16 68° E 22:28:22 10° NNE
ADEOS Rocket 4.0 22:22:35 10° NNE 22:29:56 50° E 22:32:57 32° SSE
Cosmos 2315 Rocket 4.2 22:32:50 45° SSE 22:34:44 67° E 22:41:01 10° NNE
CZ-2C R/B 4.4 22:39:09 17° WNW 22:39:09 17° WNW 22:41:31 10° NW
Cosmos 2219 3.1 22:37:21 63° WSW 22:38:09 75° WNW 22:43:48 10° NNE
SL-16 R/B 2.1 22:32:55 10° NNW 22:38:35 65° WSW 22:38:55 64° SW
NPP 4.1 22:34:05 10° NNE 22:39:21 52° E 22:40:39 42° SE
SeaSat 1 3.2 22:42:54 36° WNW 22:42:54 36° WNW 22:46:26 10° NW
NOSS 2-2 (C) 4.3 22:42:59 35° NNE 22:42:59 35° NNE 22:44:49 10° NNE
Cosmos 1666 Rocket 4.2 22:40:32 10° N 22:44:52 52° E 22:45:46 44° ESE
Cosmos 2084 4.1 22:43:18 10° NW 22:46:11 44° NW 22:46:11 44° NW
Cosmos 2237 Rocket 4.3 22:46:17 10° WNW 22:47:09 12° WNW 22:47:09 12° WNW
Cosmos 1743 Rocket 3.7 22:44:38 10° NNW 22:48:24 58° WNW 22:48:24 58° WNW
Cosmos 1709 Rocket 3.9 22:47:27 10° N 22:53:41 85° W 22:55:54 43° S
Cosmos 2227 Rocket 4.0 22:55:49 17° W 22:58:00 21° NW 23:02:13 10° N
CZ-4C R/B 4.5 22:52:48 10° NNW 22:59:02 35° NE 23:06:35 10° ESE
USA 81 4.4 22:54:17 10° N 22:59:29 60° E 23:01:54 31° SSE
ATLAS 2AS CENTAUR R/B 3.1 22:53:24 10° NNW 23:00:08 63° NE 23:06:54 10° SE
Cosmos 2263 Rocket 3.6 23:03:56 22° W 23:05:45 27° NW 23:10:25 10° N
ADEOS II 4.1 23:04:34 10° NE 23:08:30 21° E 23:12:24 10° SE
Cosmos 1328 Rocket 3.4 23:09:55 65° SW 23:10:22 72° W 23:14:47 10° N
Meteor 1-22 Rocket 4.2 23:06:12 10° NNW 23:11:51 61° W 23:13:17 46° SSW
Cosmos 2227 4.2 23:11:06 43° S 23:13:01 79° ESE 23:18:47 10° NNE
Cosmos 1125 Rocket 4.4 23:08:35 10° NW 23:12:45 31° W 23:12:45 31° W
Cosmos 2298 Rocket 4.1 23:08:57 10° NNW 23:14:18 79° ENE 23:17:54 21° SSE
NOSS 2-2 (D) 2.9 23:16:21 71° N 23:16:21 71° N 23:19:12 10° NNE
Cosmos 1745 Rocket 4.4 23:10:52 10° NNW 23:16:34 42° W 23:18:00 36° WSW
CRYOSAT 2 4.2 23:18:59 42° S 23:20:39 83° W 23:25:34 10° N
Cosmos 1943 3.0 23:16:19 10° NNW 23:21:57 77° WSW 23:25:32 23° SSE
Resurs 1-4 Rocket 2.9 23:18:44 10° NNE 23:23:46 44° E 23:27:04 20° SSE
COSMOS 2441 4.3 23:19:09 10° NNE 23:23:57 82° ESE 23:25:43 40° S
CENTAUR R/B 2.4 23:31:16 35° WSW 23:33:38 68° NW 23:40:22 10° NNE
Meteor 1-23 Rocket 4.2 23:32:24 35° SSW 23:34:53 69° W 23:40:34 10° N
Cosmos 783 Rocket 4.5 23:33:55 38° SW 23:35:56 74° WNW 23:41:12 10° NNE
Cosmos 1844 Rocket 2.7 23:33:39 36° SW 23:35:59 70° WNW 23:41:34 10° NNE
Cosmos 2150 Rocket 4.1 23:31:57 10° NNW 23:37:19 61° WSW 23:40:24 25° S
Cosmos 2154 Rocket 4.4 23:33:07 10° N 23:39:19 62° E 23:45:25 10° SSE
Cosmos 2074 Rocket 4.2 23:33:53 10° N 23:40:10 72° E 23:46:23 10° SSE
Okean 2 3.1 23:39:46 49° SSW 23:40:42 75° W 23:44:31 10° N
BREEZE-M DEB (TANK) 3.6 23:39:17 11° WNW 23:42:26 69° SSW 23:53:32 10° SE
Meteor 1-16 Rocket 4.0 23:37:14 10° NNW 23:42:32 76° W 23:46:08 21° S
ACS3 Solar Sail 3.7 23:40:35 10° NNW 23:43:34 14° WNW 23:46:10 11° W
ALOS 2.6 23:39:27 10° NNE 23:43:57 58° E 23:46:49 21° S
Tiangong -1.1 23:47:52 32° SSE 23:47:52 32° SSE 23:49:55 10° SE
Meteor 1-12 Rocket 4.2 23:41:13 10° N 23:46:55 85° E 23:52:32 10° S
Cosmos 1953 3.7 23:44:44 10° NW 23:46:58 21° WNW 23:46:58 21° WNW
Cosmos 2184 Rocket 4.1 23:41:30 10° N 23:47:40 79° E 23:53:51 10° S
Cosmos 1633 Rocket 3.7 23:44:55 10° NNW 23:48:52 36° W 23:49:40 33° WSW
Cosmos 1603 3.8 23:44:13 10° NNW 23:50:00 81° ENE 23:55:43 10° SSE
IDEFIX/ARIANE 42P 3.8 23:46:17 10° N 23:50:40 28° WNW 23:52:42 21° W
Cosmos 1470 Rocket 3.7 23:47:25 10° NNW 23:51:41 53° W 23:53:29 31° SSW
H-2A R/B 2.5 23:48:33 10° NNE 23:53:56 64° E 23:58:26 15° S
Geosat FO 3.7 23:51:58 10° NNE 23:54:38 71° WNW 23:54:56 62° WSW
